Location: Härggis
(46.9540°N, 8.4897°E)
Time: 22:41:30
(UTC+00:00)

Cosmos 1943 Rocket - Pass Details

Date: 27 May 2022
Orbit: 810 x 845 km, 71.0° (Epoch: 02 July)

Event Time Altitude Azimuth Distance (km) Brightness Sun altitude
Rises 01:06:16 0° 332° (NNW) 3,413 5.9 -17.9°
Reaches altitude 10° 01:08:43 10° 331° (NNW) 2,476 5.1 -17.7°
Maximum altitude 01:14:24 80° 246° (WSW) 864 2.1 -17.3°
Enters shadow 01:19:18 14° 160° (SSE) 2,175 4.0 -16.9°
